User: anonymous   Login
Location: Esp�n
(42.4593°N, 0.2047°W)
Time: 17:44:17
(UTC+00:00)
Language:

STARLINK-1049 - Orbit

View from above orbital plane
View from above orbital plane
View from above satellite
View from above satellite

Ground track
Ground track

The orbit data is extracted from the following two-line orbital elements,

1 44754U 19074AT  20228.58335648  .00010904  00000-0  76669-3 0  9992
2 44754  52.9989 309.0981 0001139 101.5959 263.6404 15.05564462 42641
Epoch (UTC): 15 August 2020 14:00:02
Eccentricity: 0.0001139
inclination: 52.9989°
perigee height: 549 km
apogee height: 550 km
right ascension of ascending node: 309.0981°
argument of perigee: 101.5959°
revolutions per day: 15.05564462
mean anomaly at epoch: 263.6404°
orbit number at epoch: 4264

The dashed part of the orbit path shows where the satellite is in the earth's shadow,  

DLR